Flag for Austria Weather past 2 weeks in Bregenz, Vorarlberg, Austria

36 °F

Mostly cloudy.

Feels Like: 36 °F
Forecast: 22 / 42 °F
Wind: 1 mph from Southwest

Location: Saint Gallen-Altenrhein

Current Time: Nov 27, 2015 at 2:27:03 AM

Latest Report: Nov 27, 2015 at 1:50 AM

Visibility: 6 mi

Pressure: 30.09 "Hg

Humidity: 93%

Dew point: 34 °F

Location of BregenzLocation

Historic Weather in Bregenz — Graph


Bregenz temperature yesterday

Maximum temperature yesterday: 39 °F (at 2:20 AM)
Minimum temperature yesterday: 36 °F (at 12:20 AM)
Average temperature yesterday: 38 °F

Past Weeks' High & Low Weather Summary

High64 °F (Nov 19, 11:20 PM)100% (Nov 12, 1:20 AM)30.48 "Hg (Nov 12, 1:20 AM)
Low25 °F (Nov 24, 4:50 AM)41% (Nov 19, 1:50 AM)29.42 "Hg (Nov 21, 1:50 PM)
Average45 °F82%30.07 "Hg
* Reported Nov 12 1:20 AM — Nov 27 1:20 AM, Bregenz, Weather by CustomWeather, © 2015

Note: Actual official high and low records may vary slightly from our data, if they occured in-between our weather recording intervals... More about our weather records


Bregenz weather history for previous 24 hours

Time TempWeatherWind HumidityBarometerVisibility
1:20 AM
Fri, Nov 27
37 °FMostly cloudy.2 mph87%30.12 "HgN/A
12:50 AM37 °FMostly cloudy.2 mph87%30.12 "HgN/A
12:20 AM37 °FOvercast.2 mph87%30.12 "Hg6 mi
11:50 PM
Thu, Nov 26
37 °FOvercast.3 mph87%30.12 "HgN/A
11:20 PM37 °FOvercast.1 mph87%30.12 "HgN/A
10:50 PM37 °FMostly cloudy.3 mph87%30.12 "HgN/A
10:20 PM36 °FOvercast.2 mph93%30.12 "Hg6 mi
9:50 PM37 °FMostly cloudy.2 mph87%30.12 "HgN/A
9:20 PM37 °FMostly cloudy.2 mph87%30.09 "HgN/A
8:50 PM37 °FPartly cloudy.3 mph87%30.09 "HgN/A
8:20 PM37 °FPartly cloudy.2 mph93%30.09 "HgN/A
7:50 PM39 °FPartly cloudy.3 mph87%30.09 "HgN/A
7:20 PM39 °FPassing clouds.5 mph81%30.09 "HgN/A
6:50 PM39 °FPartly cloudy.5 mph81%30.07 "HgN/A
6:20 PM39 °FPartly cloudy.2 mph87%30.07 "HgN/A
5:50 PM37 °FScattered showers. Partly cloudy.2 mph93%30.04 "HgN/A
5:20 PM37 °FScattered showers. Partly cloudy.5 mph93%30.04 "HgN/A
4:50 PM37 °FSprinkles. Partly cloudy.2 mph93%30.01 "HgN/A
4:20 PM37 °FBroken clouds.5 mph93%30.01 "HgN/A
3:50 PM39 °FBroken clouds.6 mph87%30.01 "HgN/A
3:20 PM39 °FBroken clouds.5 mph87%30.01 "HgN/A
2:50 PM39 °FPartly sunny.3 mph81%29.98 "HgN/A
2:20 PM39 °FDrizzle. Partly sunny.1 mph81%29.98 "HgN/A
1:50 PM39 °FDrizzle. Partly sunny.2 mph81%29.98 "HgN/A
1:20 PM39 °FSprinkles. Partly sunny.1 mph81%29.98 "HgN/A
12:50 PM39 °FSprinkles. Partly sunny.2 mph81%29.98 "HgN/A
12:20 PM39 °FBroken clouds.2 mph87%29.95 "HgN/A
11:50 AM37 °FBroken clouds.2 mph93%29.95 "HgN/A
11:20 AM37 °FBroken clouds.5 mph93%29.95 "HgN/A
10:50 AM36 °FLight rain. Mostly cloudy.5 mph100%29.95 "HgN/A
10:20 AM36 °FLight rain. Mostly cloudy.6 mph93%29.95 "Hg3 mi
9:50 AM37 °FSprinkles. Broken clouds.3 mph93%29.92 "Hg6 mi
9:20 AM36 °FSprinkles. Broken clouds.7 mph100%29.92 "Hg6 mi
8:50 AM39 °FBroken clouds.6 mph75%29.89 "HgN/A
8:20 AM39 °FSprinkles. Broken clouds.7 mph81%29.89 "HgN/A
7:50 AM37 °FPartly sunny.7 mph93%29.86 "HgN/A
7:20 AM37 °FLight rain. Passing clouds.5 mph93%29.86 "HgN/A
6:50 AM37 °FPassing clouds.5 mph93%29.83 "HgN/A
6:20 AM37 °FLight rain. Passing clouds.5 mph93%29.83 "HgN/A
5:50 AM37 °FLight rain. Partly cloudy.5 mph93%29.83 "HgN/A
4:50 AM37 °FLight rain. Partly cloudy.6 mph93%29.80 "HgN/A
4:20 AM37 °FLight rain. Low clouds.5 mph93%29.80 "HgN/A
3:50 AM37 °FSprinkles. Passing clouds.2 mph93%29.80 "Hg3 mi
3:20 AM37 °FSprinkles. Low clouds.3 mph100%29.80 "HgN/A
2:50 AM36 °FPassing clouds.3 mph100%29.77 "Hg4 mi
2:20 AM39 °FLight rain. Passing clouds.5 mph87%29.77 "HgN/A
Weather by CustomWeather, © 2015

See weather overviewHow to use our weather pages